DLH2WC EDDM-EDDV

Flight info

Callsign DLH2WC
Flight time 0h 46m
Altitude 30000
Route INPUD2N INPUD Y102 UPALA M726 LASTO M852 BIRKA/N0412F240 T803 GITEX GITEX1X
Aircraft A320/M-SDE3FGHIRWY/LB1

Departure

Time 2026-05-04 18:36
Airport Munich Airport (EDDM)

Arrival

Time 2026-05-04 19:22
Airport Hannover Airport (EDDV)
Time Latitude Longitude Altitude Speed Heading
2026-05-04 17:49 48.35677 11.79258 1476 ft 0 kts 263°
2026-05-04 18:24 48.35678 11.79273 1476 ft 2 kts 263°
2026-05-04 18:24 48.35680 11.79294 1476 ft 2 kts 264°
2026-05-04 18:24 48.35681 11.79316 1475 ft 2 kts 263°
2026-05-04 18:24 48.35683 11.79339 1475 ft 2 kts 263°
2026-05-04 18:25 48.35683 11.79361 1475 ft 2 kts 284°
2026-05-04 18:25 48.35678 11.79382 1475 ft 2 kts 300°
2026-05-04 18:25 48.35670 11.79400 1475 ft 2 kts 316°
2026-05-04 18:25 48.35658 11.79413 1475 ft 2 kts 333°
2026-05-04 18:26 48.35645 11.79421 1475 ft 1 kts 349°
2026-05-04 18:26 48.35638 11.79422 1475 ft 1 kts 356°
2026-05-04 18:26 48.35635 11.79422 1475 ft 0 kts 354°
2026-05-04 18:28 48.35640 11.79422 1475 ft 2 kts 354°
2026-05-04 18:29 48.35676 11.79415 1475 ft 8 kts 353°
2026-05-04 18:29 48.35758 11.79400 1474 ft 14 kts 353°
2026-05-04 18:29 48.35863 11.79387 1473 ft 14 kts 12°
2026-05-04 18:29 48.35921 11.79484 1472 ft 13 kts 39°
2026-05-04 18:30 48.36038 11.79488 1471 ft 0 kts 354°
2026-05-04 18:31 48.36073 11.79482 1470 ft 11 kts 353°
2026-05-04 18:31 48.36177 11.79469 1470 ft 16 kts 12°
2026-05-04 18:32 48.36226 11.79620 1468 ft 18 kts 83°
2026-05-04 18:32 48.36241 11.79816 1467 ft 19 kts 83°
2026-05-04 18:32 48.36257 11.80029 1466 ft 21 kts 83°
2026-05-04 18:32 48.36275 11.80261 1464 ft 23 kts 84°
2026-05-04 18:33 48.36293 11.80506 1463 ft 24 kts 83°
2026-05-04 18:33 48.36314 11.80761 1462 ft 25 kts 83°
2026-05-04 18:33 48.36334 11.81025 1460 ft 25 kts 83°
2026-05-04 18:33 48.36354 11.81286 1459 ft 24 kts 83°
2026-05-04 18:34 48.36373 11.81538 1458 ft 24 kts 83°
2026-05-04 18:34 48.36392 11.81787 1458 ft 23 kts 84°
2026-05-04 18:34 48.36401 11.81962 1458 ft 15 kts 64°
2026-05-04 18:34 48.36497 11.81993 1458 ft 15 kts 354°
2026-05-04 18:35 48.36559 11.81983 1457 ft 0 kts 354°
2026-05-04 18:35 48.36589 11.81978 1457 ft 11 kts 353°
2026-05-04 18:35 48.36666 11.81901 1457 ft 15 kts 283°
2026-05-04 18:35 48.36652 11.81649 1458 ft 51 kts 263°
2026-05-04 18:36 48.36581 11.80741 1461 ft 121 kts 263°
2026-05-04 18:36 48.36460 11.79162 1518 ft 173 kts 264°
2026-05-04 18:36 48.36343 11.77378 2128 ft 176 kts 267°
2026-05-04 18:36 48.36216 11.75537 2836 ft 180 kts 266°
2026-05-04 18:37 48.36053 11.73660 3476 ft 186 kts 265°
2026-05-04 18:37 48.35870 11.71678 3967 ft 200 kts 264°
2026-05-04 18:37 48.35672 11.69546 4418 ft 216 kts 267°
2026-05-04 18:37 48.35993 11.67294 4808 ft 232 kts 303°
2026-05-04 18:38 48.37177 11.65593 5331 ft 245 kts 335°
2026-05-04 18:38 48.38844 11.64873 5836 ft 261 kts 351°
2026-05-04 18:38 48.40709 11.64426 6369 ft 278 kts 352°
2026-05-04 18:38 48.42599 11.63795 7168 ft 283 kts 342°
2026-05-04 18:39 48.44501 11.62767 7692 ft 299 kts 339°
2026-05-04 18:39 48.46508 11.61638 8166 ft 316 kts 339°
2026-05-04 18:39 48.48608 11.60479 8713 ft 328 kts 339°
2026-05-04 18:39 48.50779 11.59313 9472 ft 333 kts 339°
2026-05-04 18:40 48.52951 11.58165 10229 ft 336 kts 339°
2026-05-04 18:40 48.55149 11.57011 10988 ft 340 kts 339°
2026-05-04 18:40 48.57429 11.55818 11519 ft 351 kts 339°
2026-05-04 18:40 48.59740 11.54612 12112 ft 357 kts 339°
2026-05-04 18:41 48.62106 11.53381 12817 ft 360 kts 339°
2026-05-04 18:41 48.64484 11.52144 13489 ft 364 kts 339°
2026-05-04 18:41 48.66855 11.50910 14138 ft 367 kts 339°
2026-05-04 18:41 48.69269 11.49651 14798 ft 369 kts 339°
2026-05-04 18:42 48.71723 11.48371 15451 ft 372 kts 339°
2026-05-04 18:42 48.74166 11.47095 16080 ft 374 kts 339°
2026-05-04 18:42 48.76626 11.45809 16684 ft 377 kts 339°
2026-05-04 18:42 48.79097 11.44516 17276 ft 380 kts 339°
2026-05-04 18:43 48.81587 11.43211 17842 ft 382 kts 339°
2026-05-04 18:43 48.84116 11.41886 18410 ft 385 kts 339°
2026-05-04 18:43 48.86677 11.40769 18929 ft 391 kts 348°
2026-05-04 18:43 48.89375 11.40305 19511 ft 394 kts 354°
2026-05-04 18:44 48.92150 11.40007 20038 ft 398 kts 354°
2026-05-04 18:44 48.93967 11.39813 20364 ft 400 kts 354°
2026-05-04 18:44 48.97700 11.39367 21030 ft 404 kts 353°
2026-05-04 18:44 49.00478 11.38998 21511 ft 406 kts 353°
2026-05-04 18:45 49.03301 11.38601 21975 ft 409 kts 353°
2026-05-04 18:45 49.06146 11.38188 22453 ft 412 kts 352°
2026-05-04 18:45 49.08964 11.37772 22904 ft 414 kts 352°
2026-05-04 18:45 49.11835 11.37342 23339 ft 417 kts 352°
2026-05-04 18:46 49.14747 11.36905 23776 ft 420 kts 352°
2026-05-04 18:46 49.17670 11.36463 24214 ft 422 kts 352°
2026-05-04 18:46 49.20580 11.36023 24626 ft 425 kts 352°
2026-05-04 18:46 49.23527 11.35576 25037 ft 427 kts 352°
2026-05-04 18:47 49.26483 11.35129 25417 ft 430 kts 352°
2026-05-04 18:47 49.29451 11.34678 25804 ft 432 kts 351°
2026-05-04 18:47 49.32445 11.34221 26193 ft 434 kts 351°
2026-05-04 18:47 49.35441 11.33765 26560 ft 436 kts 351°
2026-05-04 18:48 49.38487 11.33297 26920 ft 439 kts 351°
2026-05-04 18:48 49.41510 11.32835 27265 ft 441 kts 351°
2026-05-04 18:48 49.44554 11.32370 27609 ft 443 kts 351°
2026-05-04 18:48 49.47619 11.31901 27948 ft 445 kts 351°
2026-05-04 18:49 49.50684 11.31430 28273 ft 447 kts 351°
2026-05-04 18:49 49.53769 11.30955 28594 ft 449 kts 351°
2026-05-04 18:49 49.56919 11.30471 28912 ft 451 kts 351°
2026-05-04 18:49 49.60031 11.29993 29223 ft 453 kts 351°
2026-05-04 18:50 49.63136 11.29515 29518 ft 455 kts 351°
2026-05-04 18:50 49.66289 11.29028 29802 ft 457 kts 351°
2026-05-04 18:50 49.69434 11.28541 29952 ft 458 kts 351°
2026-05-04 18:51 49.75775 11.27557 29962 ft 458 kts 351°
2026-05-04 18:51 49.82103 11.26576 29965 ft 458 kts 351°
2026-05-04 18:52 49.88434 11.25590 29966 ft 458 kts 351°
2026-05-04 18:52 49.94760 11.24599 29964 ft 457 kts 351°
2026-05-04 18:53 50.01067 11.23609 29963 ft 457 kts 351°
2026-05-04 18:53 50.07370 11.22731 29963 ft 458 kts 354°
2026-05-04 18:54 50.13779 11.22615 29961 ft 461 kts 357°
2026-05-04 18:54 50.20164 11.22687 29960 ft 461 kts 357°
2026-05-04 18:55 50.26549 11.22741 29956 ft 461 kts 357°
2026-05-04 18:55 50.36124 11.22687 29955 ft 460 kts 354°
2026-05-04 18:56 50.42461 11.21886 29959 ft 457 kts 351°
2026-05-04 18:56 50.48756 11.20906 29962 ft 457 kts 351°
2026-05-04 18:57 50.55100 11.19929 29961 ft 458 kts 351°
2026-05-04 18:57 50.61322 11.18315 29958 ft 453 kts 341°
2026-05-04 18:58 50.67377 11.15576 29954 ft 453 kts 340°
2026-05-04 18:58 50.73451 11.12838 29952 ft 453 kts 340°
2026-05-04 18:59 50.79478 11.10192 29949 ft 453 kts 340°
2026-05-04 18:59 50.85551 11.07552 29951 ft 452 kts 340°
2026-05-04 19:00 50.88573 11.06241 29710 ft 451 kts 340°
2026-05-04 19:00 50.91605 11.04923 29372 ft 449 kts 340°
2026-05-04 19:00 50.94572 11.03635 29047 ft 447 kts 340°
2026-05-04 19:00 50.97570 11.02328 28719 ft 445 kts 340°
2026-05-04 19:01 51.00549 11.01031 28393 ft 442 kts 340°
2026-05-04 19:01 51.03469 10.99756 28072 ft 440 kts 340°
2026-05-04 19:01 51.06422 10.98464 27749 ft 438 kts 340°
2026-05-04 19:01 51.09367 10.97176 27423 ft 437 kts 340°
2026-05-04 19:02 51.12304 10.95888 27095 ft 436 kts 341°
2026-05-04 19:02 51.15205 10.94615 26778 ft 435 kts 341°
2026-05-04 19:02 51.18116 10.93336 26455 ft 433 kts 341°
2026-05-04 19:02 51.21009 10.92064 26134 ft 431 kts 341°
2026-05-04 19:03 51.23895 10.90793 25811 ft 429 kts 341°
2026-05-04 19:03 51.26752 10.89534 25490 ft 427 kts 341°
2026-05-04 19:03 51.29606 10.88275 25173 ft 425 kts 341°
2026-05-04 19:03 51.32437 10.87024 24853 ft 423 kts 341°
2026-05-04 19:04 51.35215 10.85792 24538 ft 420 kts 341°
2026-05-04 19:04 51.38035 10.84542 24219 ft 418 kts 341°
2026-05-04 19:04 51.40831 10.83302 23907 ft 417 kts 341°
2026-05-04 19:04 51.43626 10.82060 23593 ft 415 kts 341°
2026-05-04 19:05 51.46389 10.80830 23284 ft 413 kts 341°
2026-05-04 19:05 51.49162 10.79595 22976 ft 411 kts 341°
2026-05-04 19:05 51.51873 10.78319 22668 ft 408 kts 336°
2026-05-04 19:05 51.54318 10.76178 22104 ft 402 kts 321°
2026-05-04 19:06 51.56536 10.73406 21410 ft 401 kts 318°
2026-05-04 19:06 51.58693 10.70578 20727 ft 401 kts 318°
2026-05-04 19:06 51.60862 10.67784 20171 ft 397 kts 319°
2026-05-04 19:06 51.63007 10.65081 19951 ft 387 kts 320°
2026-05-04 19:07 51.65116 10.62462 19950 ft 388 kts 320°
2026-05-04 19:07 51.67243 10.59844 19742 ft 385 kts 320°
2026-05-04 19:07 51.69374 10.57233 18921 ft 391 kts 320°
2026-05-04 19:07 51.71579 10.54538 18057 ft 396 kts 320°
2026-05-04 19:08 51.73763 10.51874 17442 ft 394 kts 320°
2026-05-04 19:08 51.75909 10.49262 16902 ft 391 kts 320°
2026-05-04 19:08 51.78088 10.46602 16334 ft 388 kts 321°
2026-05-04 19:08 51.80222 10.43996 15779 ft 385 kts 321°
2026-05-04 19:09 51.82334 10.41413 15239 ft 383 kts 321°
2026-05-04 19:09 51.84449 10.38826 14703 ft 380 kts 321°
2026-05-04 19:09 51.86540 10.36266 14172 ft 377 kts 321°
2026-05-04 19:09 51.88596 10.33743 13634 ft 375 kts 320°
2026-05-04 19:10 51.90661 10.31209 13104 ft 372 kts 320°
2026-05-04 19:10 51.92714 10.28685 12575 ft 368 kts 320°
2026-05-04 19:10 51.94717 10.26220 12045 ft 365 kts 320°
2026-05-04 19:10 51.96737 10.23730 11441 ft 364 kts 320°
2026-05-04 19:11 51.98731 10.21271 10871 ft 361 kts 320°
2026-05-04 19:11 52.00722 10.18810 10475 ft 353 kts 320°
2026-05-04 19:11 52.02672 10.16547 10292 ft 340 kts 329°
2026-05-04 19:11 52.04864 10.15357 10078 ft 333 kts 351°
2026-05-04 19:12 52.07143 10.15337 9806 ft 319 kts
2026-05-04 19:12 52.11358 10.15973 9156 ft 296 kts
2026-05-04 19:12 52.13376 10.16317 8786 ft 294 kts
2026-05-04 19:13 52.15411 10.16668 8408 ft 291 kts
2026-05-04 19:13 52.17393 10.17014 8005 ft 290 kts
2026-05-04 19:13 52.19391 10.17364 7581 ft 289 kts
2026-05-04 19:13 52.21391 10.17713 7154 ft 285 kts
2026-05-04 19:14 52.23344 10.18052 6730 ft 282 kts
2026-05-04 19:14 52.25273 10.18382 6309 ft 280 kts
2026-05-04 19:14 52.27182 10.18712 5877 ft 270 kts
2026-05-04 19:14 52.29010 10.19035 5449 ft 261 kts
2026-05-04 19:15 52.30788 10.19341 5077 ft 256 kts
2026-05-04 19:15 52.32556 10.19648 4977 ft 252 kts
2026-05-04 19:15 52.34237 10.19938 4933 ft 241 kts
2026-05-04 19:15 52.35911 10.20224 4615 ft 240 kts
2026-05-04 19:16 52.37579 10.20484 4290 ft 240 kts
2026-05-04 19:16 52.39174 10.19957 4005 ft 235 kts 329°
2026-05-04 19:16 52.40302 10.18164 3987 ft 228 kts 301°
2026-05-04 19:16 52.41053 10.15886 3988 ft 228 kts 295°
2026-05-04 19:17 52.41727 10.13514 3974 ft 228 kts 294°
2026-05-04 19:17 52.42376 10.11155 3984 ft 228 kts 294°
2026-05-04 19:17 52.43024 10.08776 3978 ft 228 kts 294°
2026-05-04 19:17 52.43667 10.06409 3979 ft 227 kts 294°
2026-05-04 19:18 52.44193 10.04044 3929 ft 219 kts 285°
2026-05-04 19:18 52.44470 10.01598 3737 ft 219 kts 277°
2026-05-04 19:18 52.44635 9.99088 3456 ft 219 kts 276°
2026-05-04 19:18 52.44736 9.96626 3172 ft 220 kts 274°
2026-05-04 19:19 52.44805 9.94126 2872 ft 218 kts 274°
2026-05-04 19:19 52.44862 9.91671 2577 ft 210 kts 273°
2026-05-04 19:19 52.44917 9.89339 2300 ft 201 kts 274°
2026-05-04 19:19 52.44971 9.87169 2130 ft 180 kts 275°
2026-05-04 19:20 52.45021 9.85195 1866 ft 168 kts 275°
2026-05-04 19:20 52.45070 9.83328 1637 ft 157 kts 275°
2026-05-04 19:20 52.45116 9.81607 1419 ft 147 kts 275°
2026-05-04 19:20 52.45161 9.79953 1232 ft 147 kts 275°
2026-05-04 19:21 52.45206 9.78290 1049 ft 141 kts 274°
2026-05-04 19:21 52.45248 9.76730 863 ft 137 kts 274°
2026-05-04 19:21 52.45291 9.75181 692 ft 136 kts 274°
2026-05-04 19:21 52.45327 9.73642 519 ft 135 kts 273°
2026-05-04 19:22 52.45370 9.72100 332 ft 135 kts 274°
2026-05-04 19:22 52.45416 9.70575 194 ft 129 kts 274°
2026-05-04 19:22 52.45449 9.69529 192 ft 64 kts 272°
2026-05-04 19:22 52.45469 9.69163 192 ft 17 kts 314°
2026-05-04 19:23 52.45584 9.69139 192 ft 16 kts
2026-05-04 19:23 52.45668 9.69144 192 ft 9 kts
2026-05-04 19:23 52.45737 9.69166 192 ft 10 kts 34°
2026-05-04 19:23 52.45761 9.69288 192 ft 12 kts 91°
2026-05-04 19:24 52.45766 9.69405 192 ft 8 kts 47°
2026-05-04 19:24 52.45820 9.69449 192 ft 7 kts 23°
2026-05-04 19:24 52.45839 9.69462 192 ft 0 kts 22°